Flag for Jamaica Weather past 2 weeks in Montego Bay, Jamaica

Now
77 °F

Scattered showers. Broken clouds.


Feels Like: 78 °F
Forecast: N/A
Wind: 6 mph from Southwest

Location: Montego Bay / Sangster


UV Index: N/A

Visibility: N/A


Pressure: 29.92 "Hg

Humidity: 94%

Dew point: 75 °F

Location of Montego BayLocation

Historic Weather in Montego Bay

°F

Montego Bay temperature yesterday

Maximum temperature yesterday: 86 °F (at 12:00 PM)
Minimum temperature yesterday: 75 °F (at 12:00 AM)
Average temperature yesterday: 80 °F

Past Weeks' High & Low Weather Summary

 TemperatureHumidityPressure
High88 °F (Apr 7, 2:00 PM)100% (Apr 19, 3:00 PM)30.07 "Hg (Apr 19, 3:00 PM)
Low73 °F (Apr 5, 4:00 AM)65% (Apr 15, 7:00 AM)29.83 "Hg (Apr 11, 6:00 AM)
Average81 °F79%29.94 "Hg
* Reported Apr 4 5:00 PM — Apr 19 5:00 PM, Montego Bay, Weather by CustomWeather, © 2014

Note: Actual official high and low records may vary slightly from our data, if they occured in-between our weather recording intervals... More about our weather records

Advertising

Historic Weather Conditions — Data for Previous 24 hours

 ConditionsComfort  
Time TempWeatherWind HumidityBarometerVisibility
5:00 PM
Apr 19
77 °FScattered showers. Broken clouds.6 mph94%29.92 "HgN/A
4:00 PM75 °FBroken clouds.2 mph100%29.92 "HgN/A
3:28 PM75 °FSprinkles. Broken clouds.5 mph100%29.95 "Hg5 mi
3:00 PM75 °FThunderstorms. Broken clouds.12 mph100%29.95 "Hg3 mi
2:00 PM84 °FPartly sunny.14 mph79%29.92 "HgN/A
1:00 PM86 °FPartly sunny.14 mph75%29.95 "HgN/A
12:00 PM86 °FBroken clouds.12 mph70%29.98 "HgN/A
11:00 AM82 °FPartly sunny.12 mph79%29.98 "HgN/A
10:00 AM84 °FPartly sunny.9 mph74%29.98 "HgN/A
9:00 AM84 °FPassing clouds.10 mph74%29.98 "HgN/A
8:00 AM82 °FPassing clouds.7 mph74%29.95 "HgN/A
7:00 AM81 °FPassing clouds.8 mph79%29.95 "HgN/A
6:00 AM79 °FScattered clouds.6 mph79%29.95 "HgN/A
5:00 AM79 °FPassing clouds.6 mph79%29.92 "HgN/A
4:00 AM77 °FPassing clouds.3 mph83%29.92 "HgN/A
3:00 AM77 °FPassing clouds.3 mph83%29.92 "HgN/A
2:00 AM77 °FPassing clouds.1 mph89%29.92 "HgN/A
1:00 AM77 °FPassing clouds.3 mph89%29.95 "HgN/A
12:00 AM77 °FPassing clouds.2 mph89%29.95 "HgN/A
11:00 PM
Apr 18
77 °FPassing clouds.2 mph89%29.98 "HgN/A
10:00 PM79 °FPassing clouds.1 mph84%29.98 "HgN/A
9:00 PM79 °FPassing clouds.1 mph89%29.95 "HgN/A
8:00 PM81 °FPassing clouds.5 mph84%29.95 "HgN/A
7:00 PM79 °FPassing clouds.7 mph89%29.92 "HgN/A
6:00 PM81 °FSprinkles. Partly sunny.9 mph84%29.92 "HgN/A
Weather by CustomWeather, © 2014

See weather overview